Regional Weather Roundup
Issued by NWS Northern Indiana

Home | Current Version | Previous Version | Graphics & Text | Print | Product List | Glossary On
Versions: 1 2 3 4 5 6 7 8 9 10 11 12 13 14 15 16 17 18 19 20 21 22 23 24 25 26 27 28 29 30 31 32 33 34 35 36 37 38 39 40 41 42 43 44 45 46 47 48 49 50
000
ASUS43 KIWX 290910
RWRIWX

KIWX WEATHER ROUNDUP
NATIONAL WEATHER SERVICE NORTHERN INDIANA
500 AM EDT FRI AUG 29 2014

NOTE: "FAIR" INDICATES FEW OR NO CLOUDS BELOW 12,000 FEET WITH NO
SIGNIFICANT WEATHER AND/OR OBSTRUCTIONS TO VISIBILITY.

* THESE STATIONS ARE NOT UNDER NWS QUALITY CONTROL. THEY ALSO MAY NOT
  REPORT WEATHER SUCH AS PRECIPITATION OR FOG.

INZ001>027-291000-
NORTHERN INDIANA

CITY           SKY/WX    TMP DP  RH WIND       PRES   REMARKS
GARY*          CLOUDY    72  64  78 SE7       29.99S
VALPARAISO     CLOUDY    68  62  81 SE6       30.02S
MICHIGAN CITY* CLOUDY    68  59  73 S6        30.02R
LAPORTE*       CLOUDY    67  62  83 SE3       30.03R
KNOX*          MOCLDY    68  61  78 SE8       30.01S
SOUTH BEND     MOCLDY    68  60  75 SE12      30.03S
GOSHEN         PTCLDY    65  59  81 SE9       30.05S
MONTICELLO*    MOCLDY    66  64  92 SE5       30.01S
LOGANSPORT*    PTCLDY    63  61  94 SE5       30.04S
ROCHESTER*     PTCLDY    68  63  83 SE7       30.05R
WARSAW*        PTCLDY    63  59  88 SE6       30.06S
ANGOLA*        CLOUDY    63  54  72 SE7       30.08S
FORT WAYNE     PTCLDY    61  58  90 E6        30.08S
HUNTINGTON*    PTCLDY    62  60  93 SE6       30.06S
PERU/GRISSOM   PTCLDY    65  65 100 SE6       30.04S
MARION*        MOCLDY    64  60  86 SE7       30.06S

$$
INZ028>050-291000-
CENTRAL INDIANA

CITY           SKY/WX    TMP DP  RH WIND       PRES   REMARKS
LAFAYETTE      MOCLDY    68  65  90 E3        30.02R
KOKOMO*        PTCLDY    64  61  88 SE6       30.05R
MUNCIE*        CLOUDY    67  60  78 SE7       30.06S
INDIANAPOLIS   CLOUDY    69  61  75 E7        30.02F

$$
MIZ043>046-050>051-056>058-064>065-071>073-077>080-291000-
SOUTHWEST LOWER MICHIGAN

CITY           SKY/WX    TMP DP  RH WIND       PRES   REMARKS
BATTLE CREEK   MOCLDY    63  55  75 SE6       30.08S
BENTON HARBOR  CLOUDY    66  60  81 SE10      30.02R
COLDWATER*     CLOUDY    62  52  68 SE6       30.08S
HILLSDALE*     PTCLDY    60  53  79 SE6       30.10R
HOLLAND        MOCLDY    66  58  75 SE6       30.04S
GRAND RAPIDS   CLOUDY    62  59  90 SE7       30.06S
KALAMAZOO      MOCLDY    64  56  75 SE5       30.07S
STURGIS*         N/A     63  55  77 SE10      30.06S
THREE RIVERS*  FAIR      65  57  73 SE7       30.07S

$$
OHZ001>008-015>018-024>025-291000-
NORTHWEST OHIO

CITY           SKY/WX    TMP DP  RH WIND       PRES   REMARKS
WAUSEON*       FAIR      57  52  82 SE5       30.11R
DEFIANCE       PTCLDY    60  53  77 E5        30.10R
FINDLAY        CLEAR     58  52  80 SE7       30.10R
TOLEDO EXPRESS CLEAR     59  50  72 SE3       30.10S
TOLEDO METCALF PTCLDY    57  50  77 E7        30.12S
LIMA           CLEAR     61  55  81 SE12      30.10S

$$
&&



USA.gov is the U.S. government's official web portal to all federal, state and local government web resources and services.